This demonstration page uses our WeatherBlox Daily Observations layout. Learn more.

Left ArrowRight Arrow

47.50024, -111.30081

Hourly Observations for November 22, 2015

Temp ( °F °C ) Dew Point ( °F °C ) Humidity (%) Winds ( mph kmh ) Pressure ( in mb ) Visibility ( mi km ) Precip ( " mm )
12:53 am 00:53 Clear 33 0.6 19 -7.2 56 56 SSW 17 28 30.07 1018 10 16 0.00 0.00
1:53 am 01:53 Clear 33 0.6 19 -7.2 56 56 SW 14 22 30.05 1018 10 16 0.00 0.00
2:53 am 02:53 Clear 35 1.7 21 -6.1 57 57 SSW 18 30 30.05 1018 10 16 0.00 0.00
3:53 am 03:53 Clear 36 2.2 21 -6.1 55 55 SW 17 28 30.04 1017 10 16 0.00 0.00
4:53 am 04:53 Clear 37 2.8 22 -5.6 54 54 WSW 18 30 30.05 1018 10 16 0.00 0.00
5:53 am 05:53 Clear 37 2.8 22 -5.6 54 54 WSW 21 33 30.05 1018 10 16 0.00 0.00
6:53 am 06:53 Clear 38 3.3 21 -6.1 51 51 WSW 17 28 30.05 1018 10 16 0.00 0.00
7:53 am 07:53 Sunny 38 3.3 20 -6.7 48 48 SW 18 30 30.04 1017 10 16 0.00 0.00
8:53 am 08:53 Sunny 41 5 18 -7.8 39 39 SW 21 33 30.06 1018 10 16 0.00 0.00
9:53 am 09:53 Sunny 41 5 19 -7.2 41 41 SW 17 28 30.07 1018 10 16 0.00 0.00
10:53 am 10:53 Sunny 42 5.6 20 -6.7 41 41 SW 16 26 30.08 1019 10 16 0.00 0.00
11:53 am 11:53 Sunny 42 5.6 21 -6.1 43 43 SW 15 24 30.05 1018 10 16 0.00 0.00
12:53 pm 12:53 Mostly Cloudy 43 6.1 23 -5 45 45 SW 15 24 30.04 1017 10 16 0.00 0.00
1:53 pm 13:53 Sunny 44 6.7 24 -4.4 45 45 SW 15 24 30.01 1016 10 16 0.00 0.00
2:53 pm 14:53 Sunny 45 7.2 21 -6.1 39 39 WSW 17 28 30.01 1016 10 16 0.00 0.00
3:53 pm 15:53 Cloudy 44 6.7 20 -6.7 38 38 WSW 16 26 30.01 1016 10 16 0.00 0.00
4:53 pm 16:53 Mostly Cloudy 45 7.2 20 -6.7 37 37 SW 16 26 29.99 1016 10 16 0.00 0.00
5:53 pm 17:53 Cloudy 45 7.2 19 -7.2 35 35 SW 13 20 29.99 1016 10 16 0.00 0.00
6:53 pm 18:53 Cloudy 44 6.7 21 -6.1 40 40 SW 13 20 30.00 1016 10 16 0.00 0.00
7:53 pm 19:53 Mostly Cloudy 43 6.1 20 -6.7 40 40 SW 16 26 29.98 1015 10 16 0.00 0.00
8:53 pm 20:53 Mostly Clear 42 5.6 18 -7.8 38 38 SW 12 19 29.97 1015 10 16 0.00 0.00
9:53 pm 21:53 Mostly Cloudy 42 5.6 17 -8.3 36 36 SSW 8 13 29.97 1015 10 16 0.00 0.00
10:53 pm 22:53 Cloudy 42 5.6 18 -7.8 38 38 SSW 14 22 29.98 1015 10 16 0.00 0.00
11:53 pm 23:53 Cloudy 43 6.1 16 -8.9 34 34 S 17 28 29.96 1015 10 16 0.00 0.00

Powered by AerisWeather